www.pogodaiklimat.ru

Погода и климат >> Архив погоды >> Узбекистан >> Каракалпакия


ПОГОДА в Каракалпакии

  • Прогноз погоды в Каракалпакии
  • Монитор погоды в Каракалпакии

АРХИВ ПОГОДЫ в Каракалпакии

Время (UTC), дата Ветер
(напр.,м/с)
 
Видим.   Явления Облачность Т
(С)
Тd
(С)
f
(%)
Тe
(С)
Тes
(С)
Комфортность P
(гПа)
Po
(гПа)
Тmin
(С)
Tmax
(С)
R
(мм)
R24
(мм)
S
(см)
18 18.08 В 2 н/о ясно +26.3 +3.6 23 +25 +25 комфорт 1017.8 1003.2 +35.9
21 18.08 В 2 н/о ясно +22.1 +4.5 32 +22 +22 комфорт 1018.6 1003.8
00 19.08 В 2 н/о ясно +18.9 +5.5 41 +20 +20 1019.1 1004.1
03 19.08 В 2 20 км ясно +22.0 +5.6 34 +22 +24 комфорт 1018.8 1004.1
06 19.08 ЮВ 3 20 км ясно +32.5 +4.5 17 +30 +40 жарко 1019.7 1005.3 +18.6
09 19.08 В 5 20 км ясно +35.0 +4.6 15 +32 +40 жарко 1020.0 1005.8
12 19.08 В 5 20 км ясно +36.0 +0.6 11 +32 +36 жарко 1019.1 1005.0
15 19.08 В 3 20 км ясно +33.4 +5.5 18 +31 +31 жарко 1019.3 1005.0 +36.8
18 19.08 В 3 н/о ясно +26.2 +4.8 25 +25 +25 комфорт 1020.6 1006.0 +36.8
21 19.08 В 2 н/о ясно +22.7 +4.5 31 +23 +23 комфорт 1021.0 1006.2
00 20.08 В 2 н/о ясно +19.7 +4.6 37 +21 +21 комфорт 1021.2 1006.2
03 20.08 В 2 20 км ясно +22.3 +4.6 32 +23 +24 комфорт 1021.8 1007.0
06 20.08 В 2 20 км ясно +34.0 +3.0 14 +31 +42 жарко 1021.2 1006.9 +19.0
09 20.08 ЮВ 3 20 км ясно +36.8 +2.9 12 +34 +46 очень
жарко
1020.4 1006.3
12 20.08 В 3 20 км ясно +38.2 +5.1 13 +35 +40 очень
жарко
1018.7 1004.9
15 20.08 В 2 20 км ясно +34.8 +4.6 15 +32 +32 жарко 1018.9 1004.7 +38.5
18 20.08 В 2 н/о ясно +26.4 +4.8 25 +26 +26 жарко 1018.2 1004.4 +38.5
21 20.08 штиль 0 н/о ясно +23.6 +2.5 25 +23 +23 комфорт 1019.5 1004.7
00 21.08 штиль 0 н/о ясно +22.0 +3.6 30 +22 +22 комфорт 1019.0 1004.1
03 21.08 СВ 1 20 км ясно +22.6 +4.3 30 +23 +25 комфорт 1018.8 1004.0
06 21.08 штиль 0 20 км ясно +34.4 +4.8 16 +32 +47 жарко 1018.4 1004.2 +19.4
09 21.08 штиль 0 20 км ясно +37.9 +4.0 12 +35 +55 опасность
солнечного
удара
1016.8 1002.7
12 21.08 З 2 20 км 3/3
[Cu hum]
+38.6 +3.8 12 +36 +40 очень
жарко
1014.6 1000.7
15 21.08 З 2 20 км ясно +36.2 +4.1 14 +33 +33 жарко 1014.3 1000.3 +40.0
18 21.08 З 2 н/о 3/0
[Ci sp]
+29.4 +5.3 22 +28 +28 жарко 1014.2 999.8 +40.0
21 21.08 СЗ 2 н/о 4/0
[Ci sp]
+28.8 +5.1 22 +27 +27 жарко 1013.7 999.3
00 22.08 З 2 н/о 4/0
[Ci sp]
+23.1 +3.6 28 +23 +23 комфорт 1014.0 999.3
03 22.08 З 4 20 км 4/0
[Ci sp]
+24.3 +3.2 25 +24 +25 комфорт 1013.1 998.5
06 22.08 СЗ 4 20 км 4/0
[Ci sp]
+36.0 +2.5 12 +33 +40 жарко 1013.2 999.1 +21.4
09 22.08 20 км н/о +39.0 -0.5 8 +35 +40 очень
жарко
1012.4 998.5
12 22.08 С 4 20 км 8/8 1000 м
[Cu hum]
+38.7 -0.9 8 +35 +36 очень
жарко
1012.4 998.5
15 22.08 С 2 20 км 8/0
[Ci sp]
+36.5 +0.4 10 +33 +33 жарко 1012.2 998.1 +40.4
18 22.08 СЗ 2 н/о 4/0
[Ci sp]
+30.1 +8.9 27 +30 +30 жарко 1012.4 998.1 +40.4
21 22.08 В 3 н/о ясно +25.9 +8.7 34 +26 +26 жарко 1014.8 999.4
00 23.08 В 5 н/о ясно +22.7 +7.6 38 +24 +24 комфорт 1015.3 1000.6
03 23.08 В 5 20 км ясно +22.4 +6.1 35 +23 +24 комфорт 1017.4 1002.6
06 23.08 В 5 20 км ясно +29.8 +4.8 20 +28 +34 жарко 1017.1 1002.6 +21.4
09 23.08 В 5 20 км ясно +33.1 +4.1 16 +30 +38 жарко 1016.6 1002.4
12 23.08 В 6 20 км ясно +34.0 +4.0 15 +31 +34 жарко 1015.8 1001.6
15 23.08 В 2 20 км ясно +31.1 +1.6 15 +28 +28 жарко 1015.9 1001.6 +35.0
18 23.08 В 1 н/о ясно +25.6 +3.2 23 +24 +24 комфорт 1018.1 1003.4 +35.0
21 23.08 В 2 н/о ясно +21.0 +3.1 31 +22 +22 комфорт 1018.3 1003.0
00 24.08 В 2 н/о ясно +17.3 +3.7 40 +18 +18 1018.8 1003.5
03 24.08 В 2 20 км ясно +19.0 +3.2 35 +20 +21 1019.1 1004.1
06 24.08 ЮВ 5 20 км ясно +29.2 +2.1 18 +27 +33 жарко 1019.6 1005.1 +17.0
09 24.08 В 2 20 км 3/0
[Ci fib]
+31.6 +0.6 14 +29 +42 жарко 1018.4 1004.0
12 24.08 нст 1 20 км ясно +34.0 -2.2 10 +30 +37 жарко 1017.0 1002.7
15 24.08 штиль 0 20 км 3/0
[Ci fib]
+30.4 +1.7 16 +28 +28 жарко 1017.5 1003.1 +34.6
18 24.08 нст 1 н/о ясно +23.4 +0.6 22 +22 +22 комфорт 1018.1 1003.3 +34.6
21 24.08 штиль 0 н/о ясно +20.4 +1.3 28 +20 +20 1017.8 1002.9
03 25.08 В 2 20 км ясно +20.2 +1.1 28 +21 +22 комфорт 1017.8 1002.9

 

Местоположение метеостанции Каракалпакия (Каракалпакстан, Узбекистан): широта 44.85 долгота 56.33 высота над уровнем моря 126 м.

В архиве по умолчанию представлена погода в Каракалпакии за последнюю неделю. Архивные данные за месяц целиком и за предыдущие месяцы, начиная с января 2011 года, Вы можете получить, выбрав интересующий диапазон дат из раскрывающегося списка и нажав кнопку "Ввод!".


*Определитесь, кто Вы:
робот инопланетянин человек

Внимание! Время в таблицах - всемирное. Для получения местного времени необходимо прибавить поправку, которая равна 5 ч.

Смотрите также архив погоды в соседних городах и на ближайших метеорологических станциях:

Погода в Саме (Мангистауская область, Казахстан) (63 км)
Погода в Бейнеу (Мангистауская область, Казахстан) (103 км)
Погода в Жаслыке (Каракалпакстан, Узбекистан) (144 км)
Погода в Опорной (Мангистауская область, Казахстан) (197 км)
Погода в Муйнаке (Каракалпакстан, Узбекистан) (227 км)
Погода в Сай-Утесе (Мангистауская область, Казахстан) (228 км)
Погода в Аккудуке (Мангистауская область, Казахстан) (274 км)
Погода в Кульсары (Атырауская область, Казахстан) (286 км)
Погода в Кунграде (Каракалпакстан, Узбекистан) (286 км)
Погода в Аяккуме (Актюбинская область, Казахстан) (303 км)

Пояснения к столбцам:

Ветер - указаны скорость ветра в м/с - средняя за 10 мин, порывы в срок и между сроками (в фигурных скобках) и направление, откуда дует ветер: С - северный, СВ - северо-восточный, В - восточный, ЮВ - юго-восточный, Ю - южный, ЮЗ - юго-западный, З - западный, СЗ - северо-западный.
Видимость - горизонтальная дальность видимости в метрах или километрах. При видимости от 1 до 10 км при отсутствии осадков обычно наблюдается дымка, при ухудшении видимости до 1 км и менее - туман. В сухую погоду видимость может ухудшаться дымом, пылью или мглою.
Явления - указаны атмосферные явления, наблюдавшиеся в срок или в последний час перед сроком; фигурными скобками обозначены явления, наблюдавшиеся между сроками (за 1-3 часа до срока); квадратными скобками обозначены град или гололедные отложения с указанием их диаметра в мм.
Облачность - указаны через наклонную черту общая и нижняя облачность в баллах и высота нижней границы облаков в метрах; квадратными скобками обозначены формы облаков: Ci - перистые, Cs - перисто-слоистые, Cc - перисто-кучевые, Ac - высококучевые, As - высокослоистые, Sc - слоисто-кучевые, Ns - слоисто-дождевые, Cu - кучевые, Cb - кучево-дождевые. Подробнее классификацию облаков см. в Атласе облаков (PDF).
T - Температура воздуха - температура, измеренная на высоте 2 м над землей.
Td - Температура точки росы - температура, при понижении до которой содержащийся в воздухе водяной пар достигнет насыщения.
f - Относительная влажность воздуха - влажноcть воздуха, измеренная на высоте 2 м над землей.
Te - Эффективная температура - температура, которую ощущает одетый по сезону человек в тени. Характеристика душности погоды. При расчете учитывается влияние влажности воздуха и скорости ветра на теплоощущения человека.
Tes - Эффективная температура на солнце - температура, которую ощущает человек, с поправкой на солнечный нагрев. Характеристика знойности погоды. Зависит от высоты солнца над горизонтом, облачности и скорости ветра. Ночью, в пасмурную погоду, а также при ветре 12 м/с и более поправка равна нулю.
P - Атмосферное давление - приведенное к уровню моря атмосферное давление.
Po - Атмосферное давление - измеренное на уровне метеостанции атмосферное давление.
Tmin - Минимальная температура - минимум температуры воздуха на высоте 2 м над землей.
Tmax - Максимальная температура - максимум температуры воздуха на высоте 2 м над землей.
R - Количество осадков - Количество выпавших осадков за период времени, мм. При наведении курсора мыши на число - период времени, за который выпало указанное количество осадков.
R24 - Количество осадков - Количество выпавших осадков за 24 часа, мм.
S - Снежный покров - Высота снежного покрова, см. При наведении курсора мыши на число - состояние снежного покрова и степень покрытия местности в баллах.